Total_Precipitation_Accumulation
0.00 0.00 0.00 0.00 0.00 0.00 0.00 0.00 0.00 0.00 0.00 0.00 0.02 0.06 0.05 0.01 0.02 0.04 0.03 0.01 0.00 0.00 0.01 0.13 0.16 0.23 0.31 0.54 0.76 1.14 1.11 1.07 0.86 1.73 1.50 0.55 0.20 0.09 0.02 0.01 0.00 0.00 0.00 0.00
0.00 0.00 0.00 0.00 0.00 0.00 0.00 0.00 0.00 0.00 0.00 0.00 0.07 0.16 0.11 0.03 0.08 0.11 0.14 0.09 0.04 0.01 0.00 0.11 0.26 0.23 0.29 0.44 0.63 1.35 1.47 1.42 1.16 1.23 1.07 0.76 0.34 0.22 0.04 0.00 0.00 0.00 0.00 0.00
0.00 0.00 0.00 0.00 0.00 0.00 0.00 0.01 0.00 0.00 0.00 0.00 0.01 0.09 0.07 0.07 0.03 0.04 0.10 0.16 0.09 0.07 0.03 0.04 0.38 0.29 0.28 0.28 0.40 0.72 1.60 1.71 1.58 1.03 1.02 0.72 0.38 0.30 0.11 0.04 0.01 0.01 0.00 0.00
0.00 0.00 0.00 0.00 0.00 0.00 0.00 0.00 0.00 0.00 0.00 0.06 0.08 0.18 0.06 0.04 0.01 0.01 0.07 0.15 0.14 0.09 0.05 0.02 0.23 0.49 0.36 0.38 0.26 0.41 1.25 1.88 1.48 1.35 1.00 0.64 0.48 0.21 0.08 0.02 0.00 0.00 0.00 0.00
0.00 0.00 0.00 0.00 0.00 0.00 0.00 0.00 0.00 0.00 0.00 0.01 0.05 0.15 0.06 0.02 0.01 0.02 0.08 0.15 0.20 0.14 0.10 0.06 0.11 0.45 0.43 0.56 0.37 0.30 0.67 1.71 1.81 1.28 1.01 0.84 0.45 0.27 0.15 0.04 0.00 0.00 0.00 0.00
0.00 0.00 0.00 0.00 0.00 0.00 0.00 0.00 0.00 0.01 0.01 0.03 0.02 0.08 0.06 0.06 0.07 0.03 0.06 0.13 0.20 0.19 0.11 0.05 0.05 0.20 0.43 0.47 0.51 0.32 0.56 0.86 1.65 1.50 0.98 0.84 0.55 0.39 0.20 0.07 0.00 0.00 0.00 0.00
0.00 0.00 0.00 0.00 0.00 0.00 0.00 0.00 0.00 0.01 0.01 0.02 0.02 0.03 0.05 0.06 0.04 0.06 0.07 0.11 0.18 0.22 0.15 0.08 0.04 0.10 0.27 0.36 0.40 0.55 0.44 0.60 1.03 1.53 1.26 0.79 0.61 0.54 0.33 0.14 0.01 0.00 0.00 0.00
0.00 0.00 0.00 0.00 0.00 0.00 0.00 0.00 0.00 0.00 0.01 0.00 0.01 0.03 0.01 0.03 0.02 0.01 0.03 0.08 0.14 0.19 0.16 0.12 0.07 0.09 0.17 0.30 0.31 0.43 0.60 0.69 0.69 1.23 1.46 1.13 0.58 0.60 0.58 0.39 0.06 0.00 0.00 0.00
0.00 0.00 0.00 0.00 0.00 0.00 0.00 0.00 0.00 0.01 0.00 0.01 0.01 0.01 0.01 0.00 0.00 0.00 0.01 0.03 0.08 0.18 0.20 0.14 0.09 0.07 0.13 0.19 0.32 0.29 0.56 0.76 1.02 0.99 1.34 1.35 0.98 0.48 0.61 0.67 0.33 0.02 0.00 0.00
0.00 0.01 0.00 0.00 0.00 0.00 0.00 0.00 0.00 0.00 0.00 0.00 0.00 0.00 0.00 0.00 0.00 0.00 0.00 0.01 0.06 0.11 0.20 0.16 0.09 0.07 0.10 0.16 0.25 0.29 0.35 0.58 0.90 1.27 1.34 1.48 1.27 0.85 0.40 0.51 0.66 0.22 0.01 0.00
0.00 0.01 0.00 0.00 0.00 0.00 0.00 0.00 0.00 0.00 0.01 0.01 0.00 0.00 0.00 0.00 0.01 0.01 0.00 0.01 0.03 0.11 0.13 0.21 0.13 0.07 0.08 0.11 0.15 0.28 0.29 0.35 0.58 0.96 1.38 1.68 1.58 1.25 0.84 0.32 0.38 0.57 0.15 0.00
0.00 0.00 0.00 0.00 0.00 0.00 0.00 0.00 0.00 0.00 0.00 0.00 0.00 0.00 0.00 0.00 0.00 0.00 0.00 0.00 0.01 0.05 0.12 0.14 0.16 0.09 0.05 0.06 0.10 0.17 0.29 0.33 0.45 0.62 0.99 1.37 1.68 1.56 1.46 1.06 0.38 0.36 0.43 0.07
0.00 0.00 0.00 0.00 0.00 0.00 0.00 0.00 0.00 0.00 0.00 0.00 0.00 0.00 0.00 0.00 0.00 0.00 0.00 0.00 0.00 0.00 0.05 0.09 0.12 0.09 0.06 0.05 0.07 0.13 0.20 0.26 0.34 0.47 0.64 0.90 1.18 1.45 1.53 1.67 1.37 0.62 0.38 0.30
0.00 0.00 0.00 0.00 0.00 0.00 0.00 0.00 0.00 0.00 0.00 0.00 0.00 0.00 0.00 0.00 0.00 0.00 0.00 0.00 0.00 0.00 0.01 0.05 0.08 0.11 0.07 0.05 0.05 0.08 0.16 0.21 0.24 0.32 0.51 0.70 0.88 1.05 1.27 1.52 1.78 1.75 0.94 0.49
0.00 0.00 0.00 0.00 0.00 0.00 0.00 0.00 0.00 0.00 0.00 0.00 0.00 0.00 0.00 0.00 0.00 0.00 0.00 0.00 0.00 0.00 0.00 0.01 0.04 0.07 0.09 0.04 0.01 0.03 0.09 0.18 0.20 0.20 0.28 0.43 0.66 0.77 0.89 1.17 1.42 1.62 1.79 1.48
0.00 0.00 0.00 0.00 0.00 0.00 0.00 0.00 0.00 0.00 0.00 0.00 0.00 0.00 0.00 0.00 0.00 0.00 0.00 0.00 0.00 0.00 0.00 0.00 0.01 0.02 0.03 0.04 0.01 0.01 0.03 0.09 0.17 0.18 0.16 0.19 0.29 0.50 0.62 0.76 1.08 1.42 1.56 1.56
0.00 0.00 0.00 0.00 0.00 0.00 0.00 0.00 0.00 0.00 0.00 0.00 0.00 0.00 0.00 0.00 0.00 0.00 0.00 0.00 0.00 0.00 0.00 0.00 0.00 0.00 0.02 0.01 0.00 0.00 0.01 0.03 0.07 0.14 0.18 0.15 0.16 0.21 0.33 0.49 0.66 0.96 1.31 1.41
0.00 0.00 0.00 0.00 0.00 0.00 0.00 0.00 0.00 0.00 0.00 0.00 0.00 0.00 0.00 0.00 0.00 0.00 0.00 0.00 0.00 0.00 0.00 0.00 0.00 0.00 0.00 0.00 0.00 0.00 0.00 0.01 0.02 0.04 0.09 0.18 0.18 0.18 0.18 0.22 0.31 0.50 0.74 1.00
0.00 0.00 0.00 0.00 0.00 0.00 0.00 0.00 0.00 0.00 0.00 0.00 0.00 0.00 0.00 0.00 0.00 0.00 0.00 0.00 0.00 0.00 0.00 0.00 0.00 0.00 0.00 0.00 0.00 0.00 0.00 0.00 0.00 0.00 0.02 0.05 0.12 0.14 0.15 0.16 0.21 0.24 0.25 0.38
0.00 0.00 0.00 0.00 0.00 0.00 0.00 0.00 0.00 0.00 0.00 0.00 0.00 0.00 0.00 0.00 0.00 0.00 0.00 0.00 0.00 0.00 0.00 0.00 0.00 0.00 0.00 0.00 0.00 0.00 0.00 0.00 0.00 0.00 0.00 0.01 0.04 0.10 0.10 0.12 0.15 0.18 0.17 0.14
0.00 0.00 0.00 0.00 0.00 0.00 0.00 0.00 0.00 0.00 0.00 0.00 0.00 0.00 0.00 0.00 0.00 0.00 0.00 0.00 0.00 0.00 0.00 0.00 0.00 0.00 0.00 0.00 0.00 0.00 0.00 0.00 0.00 0.00 0.00 0.00 0.00 0.05 0.11 0.11 0.11 0.11 0.10 0.10
0.00 0.00 0.00 0.00 0.00 0.00 0.00 0.00 0.00 0.00 0.00 0.00 0.00 0.00 0.00 0.00 0.00 0.00 0.00 0.00 0.00 0.00 0.00 0.00 0.00 0.00 0.00 0.00 0.00 0.00 0.00 0.00 0.00 0.00 0.00 0.00 0.00 0.01 0.04 0.10 0.10 0.09 0.09 0.09
0.00 0.00 0.00 0.00 0.00 0.00 0.00 0.00 0.00 0.00 0.00 0.00 0.00 0.00 0.00 0.00 0.00 0.00 0.00 0.00 0.00 0.00 0.00 0.00 0.00 0.00 0.00 0.00 0.00 0.00 0.00 0.00 0.00 0.00 0.00 0.00 0.00 0.00 0.01 0.04 0.08 0.09 0.09 0.08
0.00 0.00 0.00 0.00 0.00 0.00 0.00 0.00 0.00 0.00 0.00 0.00 0.00 0.00 0.00 0.00 0.00 0.00 0.00 0.00 0.00 0.00 0.00 0.00 0.00 0.00 0.00 0.00 0.00 0.00 0.00 0.00 0.00 0.00 0.00 0.00 0.00 0.00 0.00 0.00 0.03 0.07 0.10 0.09
0.00 0.00 0.00 0.00 0.00 0.00 0.00 0.00 0.00 0.00 0.00 0.00 0.00 0.00 0.00 0.00 0.00 0.00 0.00 0.00 0.00 0.00 0.00 0.00 0.00 0.00 0.00 0.00 0.00 0.00 0.00 0.00 0.00 0.00 0.00 0.00 0.00 0.00 0.00 0.00 0.00 0.03 0.09 0.12
0.00 0.00 0.00 0.00 0.00 0.00 0.00 0.00 0.00 0.00 0.00 0.00 0.00 0.00 0.00 0.00 0.00 0.00 0.00 0.00 0.00 0.00 0.00 0.00 0.00 0.00 0.00 0.00 0.00 0.00 0.00 0.00 0.00 0.00 0.00 0.00 0.00 0.00 0.00 0.00 0.00 0.00 0.01 0.01